FW4796 Vancouver CA current weather conditions

sailwx.info

Wind from 105

Air temperature 16.1° C
Dewpoint 11.3° C

Last reported at 2020-Jul-08 05:05 UTC.
Time now 2020-Jul-08 05:29 UTC

Location: N 49°16' W 123°01'.
View on Google Maps.

See reports from other nearby stations

  
Tides and Currents Weather Stations Pressure Air Temp Water Temp Dewpoint Dewpoint Depression Visibility Wind Speed Wind Dir Waves Ship Positions
date/time (UTC)wind fromknots sea level pressurealtimeterstation pressurevisibilityair tempwater tempwave heightnotes
2020-Jul-08 05:05 105 16.1
2020-Jul-08 05:00 105 0 gusting 2 16.1
2020-Jul-08 04:55 105 16.1
2020-Jul-08 04:50 105 16.1
2020-Jul-08 04:40 105 16.7
2020-Jul-08 04:35 183 16.7
2020-Jul-08 04:30 149 16.7
2020-Jul-08 04:10 150 0 gusting 4 16.7
2020-Jul-08 04:05 126 1 gusting 4 17.2
2020-Jul-08 03:55 137 2 gusting 4 17.2
2020-Jul-08 03:50 113 1 gusting 4 17.2
2020-Jul-08 03:45 108 1 gusting 6 17.2
2020-Jul-08 03:40 180 1 gusting 6 17.2
2020-Jul-08 03:30 320 17.2
2020-Jul-08 03:25 355 0 gusting 2 17.2
2020-Jul-08 03:10 355 1 gusting 2 17.2
2020-Jul-08 03:05 355 17.2
2020-Jul-08 02:55 355 0 gusting 3 17.2
2020-Jul-08 02:50 355 1 gusting 3 17.2
2020-Jul-08 02:45 355 0 gusting 2 17.2
2020-Jul-08 02:40 355 0 gusting 3 17.2
2020-Jul-08 02:35 355 1 gusting 3 17.2
2020-Jul-08 02:25 355 1 gusting 3 17.8
2020-Jul-08 02:10 355 0 gusting 4 17.2
2020-Jul-08 02:05 355 1 gusting 4 17.2
2020-Jul-08 01:55 350 1 gusting 4 17.2
2020-Jul-08 01:50 350 2 gusting 4 17.2
2020-Jul-08 01:45 332 2 gusting 4 17.2
2020-Jul-08 01:40 335 2 gusting 5 17.2
2020-Jul-08 01:35 344 3 gusting 5 17.2
2020-Jul-08 01:30 010 2 gusting 5 17.2
2020-Jul-08 01:25 011 4 gusting 6 17.2
2020-Jul-08 01:10 011 3 gusting 6 17.2
2020-Jul-08 01:00 360 3 gusting 6 17.2
2020-Jul-08 00:55 346 2 gusting 6 17.2
2020-Jul-08 00:50 313 2 gusting 6 17.2
2020-Jul-08 00:40 331 2 gusting 6 17.2
2020-Jul-08 00:35 326 3 gusting 6 17.8
2020-Jul-08 00:30 322 2 gusting 5 17.8
2020-Jul-08 00:25 211 2 gusting 6 18.3
2020-Jul-08 00:10 223 3 gusting 6 18.3
2020-Jul-08 00:05 211 0 gusting 5 18.3
2020-Jul-08 00:00 128 1 gusting 6 18.3
2020-Jul-07 23:50 186 4 gusting 8 18.9
2020-Jul-07 23:45 195 3 gusting 6 18.9
2020-Jul-07 23:40 148 2 gusting 6 18.9
2020-Jul-07 23:35 159 2 gusting 6 18.9
2020-Jul-07 23:30 199 3 gusting 6 19.4
2020-Jul-07 23:25 117 2 gusting 8 18.9
2020-Jul-07 23:10 208 3 gusting 8 18.9
2020-Jul-07 23:05 171 3 gusting 8 18.9
2020-Jul-07 23:00 214 2 gusting 8 18.9
2020-Jul-07 22:55 194 3 gusting 8 19.4
2020-Jul-07 22:50 164 3 gusting 8 19.4
2020-Jul-07 22:45 169 3 gusting 6 18.9
2020-Jul-07 22:40 220 3 gusting 9 18.9
2020-Jul-07 22:35 073 4 gusting 10 18.9
2020-Jul-07 22:25 197 3 gusting 7 19.4
2020-Jul-07 22:10 190 3 gusting 7 19.4
2020-Jul-07 22:05 164 0 gusting 7 18.9
2020-Jul-07 22:00 132 3 gusting 7 18.9
2020-Jul-07 21:55 186 1 gusting 6 18.9
2020-Jul-07 21:50 236 2 gusting 6 18.9
2020-Jul-07 21:40 129 3 gusting 7 18.9
2020-Jul-07 21:35 142 1 gusting 6 18.9
2020-Jul-07 21:25 090 2 gusting 5 18.3
2020-Jul-07 21:05 157 1 gusting 3 18.3
2020-Jul-07 20:55 123 0 gusting 5 17.8
2020-Jul-07 20:50 152 1 gusting 5 17.8
2020-Jul-07 20:45 085 1 gusting 8 17.8
2020-Jul-07 20:40 100 3 gusting 8 17.8
2020-Jul-07 20:35 123 0 gusting 9 17.8
2020-Jul-07 20:25 109 3 gusting 6 17.8
2020-Jul-07 17:10 105 3 gusting 9 16.1
2020-Jul-07 17:05 082 1 gusting 8 16.1
2020-Jul-07 17:00 071 5 gusting 8 16.1
2020-Jul-07 16:55 128 3 gusting 8 16.1
2020-Jul-07 16:46 084 2 gusting 9 16.1
2020-Jul-07 16:40 063 2 gusting 8 15.6
2020-Jul-07 16:30 079 5 gusting 9 15.6
2020-Jul-07 16:25 080 4 gusting 10 15.0
2020-Jul-07 16:20 125 4 gusting 10 15.0
2020-Jul-07 16:10 034 5 gusting 10 15.0
2020-Jul-07 16:05 028 4 gusting 8 15.0
2020-Jul-07 13:10 048 2 gusting 6 13.3
2020-Jul-07 13:05 022 1 gusting 6 13.3
2020-Jul-07 12:55 084 2 gusting 6 13.3
2020-Jul-07 12:50 141 3 gusting 6 13.3
2020-Jul-07 12:45 144 0 gusting 5 13.3
2020-Jul-07 12:40 094 1 gusting 5 13.3
2020-Jul-07 12:35 125 0 gusting 5 13.3
2020-Jul-07 12:25 070 1 gusting 7 13.3
2020-Jul-07 12:20 057 3 gusting 7 13.3
2020-Jul-07 12:10 080 4 gusting 7 12.8
2020-Jul-07 12:05 088 4 gusting 7 12.8
2020-Jul-07 11:55 094 1 gusting 9 13.3
2020-Jul-07 11:50 118 4 gusting 9 13.3
2020-Jul-07 11:45 054 1 gusting 8 13.3
2020-Jul-07 11:40 089 5 gusting 10 12.8
2020-Jul-07 11:35 121 6 gusting 10 12.8
2020-Jul-07 11:30 130 5 gusting 10 13.3
2020-Jul-07 11:25 070 5 gusting 9 13.3
2020-Jul-07 11:20 114 6 gusting 11 13.9
2020-Jul-07 11:10 092 5 gusting 10 13.9
2020-Jul-07 11:05 119 6 gusting 10 13.9
2020-Jul-07 11:00 109 6 gusting 9 14.4
2020-Jul-07 10:55 092 3 gusting 8 14.4
2020-Jul-07 10:50 147 4 gusting 8 14.4
2020-Jul-07 10:45 088 5 gusting 10 15.0
2020-Jul-07 10:40 124 6 gusting 10 15.0
2020-Jul-07 10:35 088 3 gusting 7 15.6
2020-Jul-07 10:30 145 2 gusting 7 15.6
2020-Jul-07 10:25 157 3 gusting 7 15.6
2020-Jul-07 10:20 103 4 gusting 6 15.6
2020-Jul-07 10:10 123 3 gusting 6 15.6
2020-Jul-07 10:05 093 3 gusting 6 15.6
2020-Jul-07 10:00 078 1 gusting 5 15.6
2020-Jul-07 09:55 088 1 gusting 5 15.6
2020-Jul-07 09:47 103 2 gusting 3 15.6
2020-Jul-07 09:36 119 0 gusting 5 15.6
2020-Jul-07 09:30 111 0 gusting 3 15.6
2020-Jul-07 09:20 150 1 gusting 4 15.6
2020-Jul-07 09:11 132 1 gusting 6 15.6
2020-Jul-07 09:06 132 2 gusting 6 15.6
2020-Jul-07 09:01 131 3 gusting 6 15.6
2020-Jul-07 08:56 126 2 gusting 6 15.6
2020-Jul-07 08:51 134 3 gusting 7 15.6
2020-Jul-07 08:47 136 4 gusting 6 15.6
2020-Jul-07 08:41 142 2 gusting 6 16.1
2020-Jul-07 08:33 147 2 gusting 6 16.1
2020-Jul-07 08:26 099 3 gusting 6 16.1
2020-Jul-07 08:21 148 2 gusting 6 16.1
2020-Jul-07 08:10 124 2 gusting 6 16.1
2020-Jul-07 08:05 125 2 gusting 6 16.1
2020-Jul-07 08:02 126 1 gusting 6 16.1
2020-Jul-07 07:55 111 2 gusting 6 16.1
2020-Jul-07 07:50 130 2 gusting 6 16.1
2020-Jul-07 07:47 131 1 gusting 6 16.7
2020-Jul-07 07:41 113 2 gusting 6 16.7
2020-Jul-07 07:36 101 3 gusting 6 16.7
2020-Jul-07 07:32 102 3 gusting 6 16.7
2020-Jul-07 07:26 103 2 gusting 7 16.7
2020-Jul-07 07:21 082 3 gusting 7 16.7
2020-Jul-07 07:11 098 3 gusting 7 16.7
2020-Jul-07 07:06 101 3 gusting 7 16.7
2020-Jul-07 07:02 090 4 gusting 6 16.7
2020-Jul-07 06:56 096 3 gusting 6 16.7
2020-Jul-07 06:51 092 3 gusting 6 16.7
2020-Jul-07 06:47 078 4 gusting 8 16.7
2020-Jul-07 06:40 087 4 gusting 8 16.7
2020-Jul-07 06:36 086 3 gusting 6 16.7
2020-Jul-07 06:33 095 2 gusting 5 16.7
2020-Jul-07 06:26 089 1 gusting 6 16.7
2020-Jul-07 06:21 091 5 gusting 7 16.7
2020-Jul-07 06:10 110 5 gusting 7 16.7
2020-Jul-07 06:05 101 2 gusting 5 16.7
2020-Jul-07 06:00 105 0 gusting 2 16.7
2020-Jul-07 05:55 105 0 gusting 2 17.2
2020-Jul-07 05:50 105 0 gusting 2 17.2
2020-Jul-07 05:40 105 0 gusting 2 17.2
2020-Jul-07 05:35 105 0 gusting 3 17.2
2020-Jul-07 05:30 105 0 gusting 3 17.2
2020-Jul-07 05:25 105 2 gusting 3 17.2
2020-Jul-07 05:20 105 17.2
2020-Jul-07 05:11 105 17.2
2020-Jul-07 05:05 105 0 gusting 2 17.2
2020-Jul-07 05:01 105 1 gusting 2 17.2
2020-Jul-07 04:55 106 17.2
2020-Jul-07 04:50 155 0 gusting 2 17.2
2020-Jul-07 04:48 155 17.2
2020-Jul-07 04:41 098 17.2
2020-Jul-07 04:35 098 0 gusting 2 17.2
2020-Jul-07 04:32 098 17.8
2020-Jul-07 04:26 098 1 gusting 3 17.8
2020-Jul-07 04:20 132 0 gusting 4 17.8
2020-Jul-07 04:11 132 0 gusting 4 17.8
2020-Jul-07 04:05 245 0 gusting 5 17.8
2020-Jul-07 04:01 128 1 gusting 5 17.8
2020-Jul-07 03:55 132 2 gusting 4 17.8
2020-Jul-07 03:51 148 1 gusting 4 18.3
2020-Jul-07 03:46 117 0 gusting 3 18.3
2020-Jul-07 03:41 180 18.3
2020-Jul-07 03:35 180 1 gusting 3 18.3
2020-Jul-07 03:31 125 1 gusting 3 18.3
2020-Jul-07 03:25 173 0 gusting 5 18.3
2020-Jul-07 03:21 128 1 gusting 5 18.3
2020-Jul-07 03:11 188 1 gusting 5 18.3
2020-Jul-07 03:06 178 2 gusting 6 18.3
2020-Jul-07 03:01 167 3 gusting 6 18.3
2020-Jul-07 02:55 196 3 gusting 6 18.9
2020-Jul-07 02:50 159 3 gusting 6 18.9
2020-Jul-07 02:47 130 2 gusting 6 19.4
2020-Jul-07 02:41 173 3 gusting 6 19.4
2020-Jul-07 02:35 145 2 gusting 6 19.4
2020-Jul-07 02:32 163 2 gusting 6 20.0
2020-Jul-07 02:26 186 3 gusting 8 20.0
2020-Jul-07 02:20 190 3 gusting 8 20.0
2020-Jul-07 02:10 215 3 gusting 8 20.0
2020-Jul-07 02:05 158 3 gusting 7 20.0
2020-Jul-07 02:02 145 2 gusting 8 20.0
2020-Jul-07 01:56 164 3 gusting 8 20.0
2020-Jul-07 01:51 198 2 gusting 7 20.6
2020-Jul-07 01:47 137 2 gusting 6 20.6
2020-Jul-07 01:41 202 1 gusting 6 20.6
2020-Jul-07 01:35 149 4 gusting 7 20.6
2020-Jul-07 01:31 205 1 gusting 7 20.6
2020-Jul-07 01:26 194 5 gusting 9 20.6
2020-Jul-07 01:20 194 5 gusting 9 20.6
2020-Jul-07 01:11 221 5 gusting 9 20.6
2020-Jul-07 01:05 100 2 gusting 7 21.1
2020-Jul-07 01:02 191 4 gusting 7 21.1
2020-Jul-07 00:55 150 3 gusting 6 21.1
2020-Jul-07 00:50 170 2 gusting 6 21.1
2020-Jul-07 00:46 119 2 gusting 6 20.6
2020-Jul-07 00:40 141 2 gusting 7 20.0
2020-Jul-07 00:32 132 3 gusting 7 20.6
2020-Jul-07 00:26 119 1 gusting 7 20.6
2020-Jul-07 00:20 149 1 gusting 8 20.0
2020-Jul-07 00:10 119 1 gusting 8 20.0
2020-Jul-07 00:05 116 4 gusting 10 20.0
2020-Jul-07 00:01 124 6 gusting 10 20.0
2020-Jul-06 23:55 212 3 gusting 9 20.0
2020-Jul-06 23:50 142 4 gusting 8 20.0
2020-Jul-06 23:46 124 2 gusting 7 20.0
2020-Jul-06 23:40 030 3 gusting 7 20.0
2020-Jul-06 23:35 148 2 gusting 7 20.0
2020-Jul-06 23:31 133 3 gusting 7 20.0
2020-Jul-06 23:25 073 1 gusting 6 20.0
2020-Jul-06 23:20 121 1 gusting 7 20.0
2020-Jul-06 23:15 124 4 gusting 7 20.0
2020-Jul-06 23:11 175 3 gusting 6 20.0
2020-Jul-06 23:05 096 3 gusting 7 20.0
2020-Jul-06 23:01 162 2 gusting 6 20.6
2020-Jul-06 22:55 190 2 gusting 6 20.6
2020-Jul-06 22:50 188 3 gusting 8 20.0
2020-Jul-06 22:35 166 4 gusting 8 20.0
2020-Jul-06 22:30 180 4 gusting 9 20.0
2020-Jul-06 22:25 182 4 gusting 8 20.0
2020-Jul-06 22:20 123 5 gusting 8 20.0
2020-Jul-06 22:15 124 3 gusting 10 19.4
2020-Jul-06 22:10 113 6 gusting 10 20.0
2020-Jul-06 22:05 131 3 gusting 8 20.0
2020-Jul-06 22:00 201 3 gusting 9 20.0
2020-Jul-06 21:55 138 5 gusting 9 20.0
2020-Jul-06 21:51 200 4 gusting 10 20.6
2020-Jul-06 21:40 162 4 gusting 10 20.6
2020-Jul-06 21:35 211 6 gusting 10 21.1
2020-Jul-06 21:32 126 4 gusting 12 20.6
2020-Jul-06 21:25 152 6 gusting 12 21.1
2020-Jul-06 21:20 169 5 gusting 11 20.6
2020-Jul-06 21:16 135 5 gusting 11 20.6
2020-Jul-06 21:10 130 5 gusting 11 20.6
2020-Jul-06 21:05 138 5 gusting 11 20.6
2020-Jul-06 21:00 109 5 gusting 8 21.1
2020-Jul-06 20:55 091 3 gusting 8 21.1
2020-Jul-06 20:50 132 1 gusting 7 20.6
2020-Jul-06 20:40 109 1 gusting 7 20.6
2020-Jul-06 20:35 143 4 gusting 7 20.6
2020-Jul-06 20:31 144 3 gusting 10 20.6
2020-Jul-06 20:25 322 3 gusting 9 20.0
2020-Jul-06 20:20 117 3 gusting 9 20.0
2020-Jul-06 20:16 192 3 gusting 10 20.0
2020-Jul-06 20:10 140 5 gusting 10 20.0
2020-Jul-06 20:05 078 4 gusting 7 20.0
2020-Jul-06 20:01 157 3 gusting 6 20.0
2020-Jul-06 19:55 136 4 gusting 7 19.4
2020-Jul-06 19:50 122 3 gusting 10 19.4
2020-Jul-06 19:40 217 3 gusting 10 19.4
2020-Jul-06 19:35 197 3 gusting 10 19.4
2020-Jul-06 19:31 136 3 gusting 10 18.9
2020-Jul-06 19:25 108 5 gusting 10 19.4
2020-Jul-06 19:20 137 4 gusting 10 19.4
2020-Jul-06 19:15 149 6 gusting 10 19.4
2020-Jul-06 19:10 199 2 gusting 10 19.4
2020-Jul-06 19:05 155 4 gusting 8 19.4
2020-Jul-06 19:00 157 2 gusting 6 19.4
2020-Jul-06 18:55 152 3 gusting 6 18.9
2020-Jul-06 18:50 109 4 gusting 7 18.9
2020-Jul-06 18:40 125 4 gusting 7 18.9
2020-Jul-06 18:35 101 4 gusting 7 18.9
2020-Jul-06 18:31 167 1 gusting 8 18.9
2020-Jul-06 18:25 155 2 gusting 8 18.9
2020-Jul-06 18:20 165 3 gusting 8 18.9
2020-Jul-06 18:16 101 2 gusting 8 18.3
2020-Jul-06 18:05 142 2 gusting 8 18.9
2020-Jul-06 18:01 135 4 gusting 8 18.9
2020-Jul-06 17:55
2020-Jul-06 17:50
2020-Jul-06 17:46
2020-Jul-06 17:40
2020-Jul-06 17:35
2020-Jul-06 17:30
2020-Jul-06 17:25
2020-Jul-06 17:20 18.3
2020-Jul-06 17:15 097 2 gusting 7 18.3
2020-Jul-06 17:05 057 2 gusting 7 18.3
2020-Jul-06 17:00 142 3 gusting 7 18.3
2020-Jul-06 16:55 062 1 gusting 9 18.3
2020-Jul-06 16:50 123 3 gusting 10 18.3
2020-Jul-06 16:45 111 2 gusting 10 18.3
2020-Jul-06 16:40 049 4 gusting 8 18.3
2020-Jul-06 16:35 102 1 gusting 6 18.3
2020-Jul-06 16:30 146 2 gusting 8 17.8
2020-Jul-06 16:25 098 4 gusting 10 17.2
2020-Jul-06 16:20 103 3 gusting 10 17.2
2020-Jul-06 16:15 127 1 gusting 6 17.8
2020-Jul-06 16:05 081 1 gusting 6 17.8
2020-Jul-06 16:00 087 1 gusting 6 17.2
2020-Jul-06 15:55 154 2 gusting 6 17.2
2020-Jul-06 15:50 089 3 gusting 6 16.7
2020-Jul-06 15:40 061 3 gusting 8 16.7
2020-Jul-06 15:35 126 4 gusting 8 16.7
2020-Jul-06 15:30 181 1 gusting 5 16.7
2020-Jul-06 15:25 111 1 gusting 5 16.1
2020-Jul-06 15:20 211 1 gusting 6 16.1
2020-Jul-06 15:15 135 3 gusting 6 15.6
2020-Jul-06 15:05 186 3 gusting 6 15.6
2020-Jul-06 15:00 144 1 gusting 7 15.0
2020-Jul-06 14:55 015 2 gusting 7 15.0
2020-Jul-06 14:45 087 2 gusting 6 14.4
2020-Jul-06 14:35 073 1 gusting 6 14.4
2020-Jul-06 14:30 092 1 gusting 6 14.4
2020-Jul-06 14:25 113 2 gusting 6 14.4
2020-Jul-06 14:20 062 1 gusting 4 13.9
2020-Jul-06 14:05 074 2 gusting 6 13.9
2020-Jul-06 13:55 092 1 gusting 4 13.3
2020-Jul-06 13:50 077 2 gusting 5 13.3
2020-Jul-06 13:45 092 1 gusting 5 13.3
2020-Jul-06 13:40 096 2 gusting 5 12.8
2020-Jul-06 13:35 094 1 gusting 5 12.8
2020-Jul-06 13:26 084 1 gusting 3 12.8
2020-Jul-06 13:20 090 1 gusting 3 12.8
2020-Jul-06 13:16 090 0 gusting 3 12.8
2020-Jul-06 13:01 090 1 gusting 3 12.8
2020-Jul-06 12:55 090 0 gusting 3 12.2
2020-Jul-06 12:50 090 0 gusting 2 12.2
2020-Jul-06 12:47 090 0 gusting 2 12.2
2020-Jul-06 12:41 090 0 gusting 2 12.2
2020-Jul-06 12:35 093 0 gusting 2 12.2
2020-Jul-06 12:30 093 0 gusting 3 12.2
2020-Jul-06 12:26 093 1 gusting 3 12.8
2020-Jul-06 12:20 093 1 gusting 3 12.8
2020-Jul-06 12:17 134 0 gusting 3 12.8
2020-Jul-06 12:01 134 1 gusting 3 12.8
2020-Jul-06 11:55 134 1 gusting 2 12.8
2020-Jul-06 11:50 134 0 gusting 3 12.8
2020-Jul-06 11:46 134 2 gusting 4 12.8
2020-Jul-06 11:40 132 2 gusting 4 12.8
2020-Jul-06 11:35 129 1 gusting 3 12.8
2020-Jul-06 11:32 129 0 gusting 2 12.8
2020-Jul-06 11:25 129 0 gusting 2 12.8
2020-Jul-06 11:20 129 12.8
2020-Jul-06 11:16 129 1 gusting 3 12.8
2020-Jul-06 11:00 129 1 gusting 3 13.3
2020-Jul-06 10:56 129 1 gusting 3 13.3
2020-Jul-06 10:50 129 1 gusting 3 13.3
2020-Jul-06 10:46 099 1 gusting 3 13.3
2020-Jul-06 10:41 094 1 gusting 5 13.3
2020-Jul-06 10:35 098 1 gusting 5 13.3
2020-Jul-06 10:31 090 0 gusting 5 13.3
2020-Jul-06 10:25 103 1 gusting 5 13.3
2020-Jul-06 10:20 103 1 gusting 3 13.3
2020-Jul-06 10:15 090 0 gusting 2 13.3
2020-Jul-06 10:02 090 13.3
2020-Jul-06 09:55 090 0 gusting 3 13.3
2020-Jul-06 09:50 090 13.3
2020-Jul-06 09:46 086 0 gusting 3 13.3
2020-Jul-06 09:40 096 13.3
2020-Jul-06 09:35 096 13.9
2020-Jul-06 09:30 130 0 gusting 2 13.9
2020-Jul-06 09:25 130 0 gusting 2 13.9
2020-Jul-06 09:20 130 0 gusting 2 13.9
2020-Jul-06 09:16 130 0 gusting 2 13.9
2020-Jul-06 09:01 130 1 gusting 2 13.9
2020-Jul-06 08:55 131 13.9
2020-Jul-06 08:50 131 0 gusting 2 13.9
2020-Jul-06 08:46 114 0 gusting 3 13.9
2020-Jul-06 08:40 120 1 gusting 3 14.4
2020-Jul-06 08:35 048 1 gusting 3 14.4
2020-Jul-06 08:30 047 1 gusting 2 14.4
2020-Jul-06 08:25 047 0 gusting 3 14.4
2020-Jul-06 08:20 047 0 gusting 3 14.4
2020-Jul-06 08:16 047 0 gusting 3 15.0
2020-Jul-06 08:01 047 0 gusting 5 15.0
2020-Jul-06 07:56 049 1 gusting 5 15.0
2020-Jul-06 07:50 062 0 gusting 2 15.0
2020-Jul-06 07:46 062 15.0
2020-Jul-06 07:41 062 15.0
2020-Jul-06 07:35 062 15.6
2020-Jul-06 07:31 062 15.6
2020-Jul-06 07:25 062 1 gusting 5 15.6
2020-Jul-06 07:20 15.6
2020-Jul-06 07:16 060 1 gusting 6 15.6
2020-Jul-06 07:01 069 1 gusting 6 15.6
2020-Jul-06 06:55 054 1 gusting 5 15.6
2020-Jul-06 06:50 083 1 gusting 5 16.1
2020-Jul-06 06:46 090 1 gusting 5 16.1
2020-Jul-06 06:40 065 1 gusting 5 16.1
2020-Jul-06 06:36 061 1 gusting 6 16.1
2020-Jul-06 06:31 067 3 gusting 6 16.1
2020-Jul-06 06:25 050 1 gusting 4 16.1
2020-Jul-06 06:20 112 16.1
2020-Jul-06 06:15 187 16.7
2020-Jul-06 06:00 187 16.7
2020-Jul-06 05:55 187 16.7
2020-Jul-06 05:50 187 16.7
2020-Jul-06 05:46 187 17.2
2020-Jul-06 05:40 187 0 gusting 1 17.2
2020-Jul-06 05:35 187 17.2
2020-Jul-06 05:32 187 17.2
2020-Jul-06 05:25 187 0 gusting 1 17.2
2020-Jul-06 05:20 187 17.8
2020-Jul-06 05:15 187 17.8
2020-Jul-06 05:01 187 18.3